LiveATC.Net - Listen to live air traffic control over the Internet!


ICAO: UNOO  IATA: OMS   Airport: Omsk Airport
City: Omsk
Country: Russia   Continent: Asia
UNOO METAR Weather: UNOO 082000Z 10004MPS CAVOK 21/12 Q1005 R07/CLRD60 NOSIG RMK QFE745
UNOO Flight Activity (FlightAware)

UNOO Gnd/Tower/App
Feed Status: DOWN
Last heard on: 2020-08-06 03:19:06 (2 days 17 hours 27 minutes ago)
Archive Access: UNOO Gnd/Tower/App
FacilityFrequency
Aerodrom Kalachevo123.300
Aerodrom Marianovka123.000
Emergency/Guard121.500
Novosibirsk Control (Sector 7)132.500
Novosibirsk Control (Sector 8)132.900
Omsk Approach (FL060-FL265)131.200
Omsk Apron118.800
Omsk Start/Radar119.000
Omsk Taxiing121.700
Omsk Transit131.700
UNOS/OMSK-Severny124.000

NOTICE

Unauthorized use prohibited. See LiveATC.net Terms of Service


Airport/ARTCC Code
Frequency Search
(e.g., 124.400, 128.75)
Site-wide search
 


Browse Feeds
Top 50 Feeds
Coverage Map
Bad Weather Areas

LiveATC FAQ
Offer LiveATC feed
Contact LiveATC.net
Press Inquiries

LiveATC on iPhone
LiveATC on Android

Windows Phone
Windows 8/10

LiveATC Mobile
(Mobile browser)

ATC Audio Archives
Interesting Recordings

LiveATC Forums


Home Page
About LiveATC.net
Make a Donation
Terms of Use
Privacy Policy

Canadian Air Freqs

AIRMETs/SIGMETs

FAA Airport Status
Nat'l Airspace Status
Arrival Demand Charts


Server Software By:
Icecast.org
Liquidsoap